Погода в Конце

Россия / Санкт-Петербург и Ленинградская область     60°54′36″N   34°58′05″E
темп.,
°C
ветер,
м/с
пор.,
м/с
влажн.,
%
обл.,
%
осадки,
мм/ч
давл.,
гПа
погр.,
м
20 сентября, пн
пн2000:00+3в39815 0.0 1031279
03:00+2в398396 0.0 1031373
06:00+2в31080100 0.0 1031444
09:00+6в496632 0.0 10311167
12:00+7в585698 0.0 10311325
15:00+8всв585392 0.0 10301360
18:00+6всв496399 0.0 1029774
21:00+4в4107198 0.0 1029581
21 сентября, вт
вт2100:00+3в3979100 0.0 1029418
03:00+3всв3884100 0.0 1028328
06:00+3в398394 0.0 1026408
09:00+5в497192 0.0 1026544
12:00+8в4656100 0.0 1024889
15:00+10в4651100 0.0 10231163
18:00+7в3862100 0.0 1023380
21:00+5всв257493 0.0 1023110
22 сентября, ср
ср2200:00+4всв228662 0.0 102351
03:00+3всв22956 0.0 102350
06:00+2всв24978 0.0 102387
09:00+7всв37755 0.0 1023483
12:00+10всв45585 0.0 1023778
15:00+11всв46524 0.0 1022981
18:00+8всв27675 0.0 1021199
21:00+4всв23880 0.0 102251
23 сентября, чт
чт2300:00+3в22925 0.0 102127
03:00+2в229514 0.0 102022
06:00+2в119597 0.0 101919
09:00+7вюв2478100 0.0 1018258
12:00+11юв246535 0.0 1016811
15:00+11вюв2469100 0.0 1015620
18:00+10юв2679100 0.0 1014320
21:00+8ююв2987100 0.0 1013456
24 сентября, пт
пт2400:00+8ююв3989100 0.0 1012548
03:00+8ююв399195 0.1 1011477
06:00+8ююв41090100 0.4 1009647
09:00+8юв398598 0.6 1008811
12:00+8ююв498149 0.3 10071023
15:00+9юв497882 0.4 1006926
18:00+8юв4107884 0.0 1005725
21:00+6юв3118979 0.0 1005455